Location: Laterina
(43.5167°N, 11.7167°E)
Time: 14:12:28
(UTC+00:00)

Cosmos 2026 Rocket - Pass Details

Date: 23 January 2021
Orbit: 940 x 1000 km, 82.9° (Epoch: 28 February)

Event Time Altitude Azimuth Distance (km) Brightness Sun altitude
Rises 18:57:18 0° 211° (SSW) 3,604 7.3 -29.7°
Reaches altitude 10° 18:59:58 10° 219° (SW) 2,670 6.7 -30.2°
Maximum altitude 19:05:34 37° 286° (WNW) 1,448 5.3 -31.2°
Drops below altitude 10° 19:11:18 10° 353° (N) 2,723 6.4 -32.2°
Sets 19:14:03 0° 2° (N) 3,684 7.1 -32.7°
